,,,PA_Meas_PMT16A,,PR_Meas_QMR101_102,,RH_Meas_QMH101,,SR_Meas_QMS101,,TA_Meas_QMH101,,GenWind,,GenWind,
date,time,status,PA,status,PR,status,RH,status,SR,status,TA,status,DirAvg,status,SpdAvg,
2010-05-16, 00:00:04,VALID,998.442,VALID,0,VALID,92.3413,VALID,0,VALID,25.1455,VALID,306,VALID,0.135547,
2010-05-16, 00:01:04,VALID,998.466,VALID,0,VALID,92.3108,VALID,0,VALID,25.1455,VALID,306,VALID,0.453906,
2010-05-16, 00:02:04,VALID,998.448,VALID,0,VALID,92.2574,VALID,0,VALID,25.126,VALID,306,VALID,0.492578,
2010-05-16, 00:03:04,VALID,998.451,VALID,0.5,VALID,92.265,VALID,0,VALID,25.1436,VALID,311,VALID,0.572656,
2010-05-16, 00:04:04,VALID,998.431,VALID,0,VALID,92.3413,VALID,0,VALID,25.1436,VALID,329,VALID,0.451953,
2010-05-16, 00:05:04,VALID,998.406,VALID,0,VALID,92.3337,VALID,0,VALID,25.1436,VALID,329,VALID,0.296484,
2010-05-16, 00:06:04,VALID,998.427,VALID,0,VALID,92.3566,VALID,0,VALID,25.1436,VALID,329,VALID,0.248828,
2010-05-16, 00:07:04,VALID,998.438,VALID,0,VALID,92.3642,VALID,0,VALID,25.1241,VALID,329,VALID,0,
2010-05-16, 00:08:04,VALID,998.402,VALID,0,VALID,92.4023,VALID,0,VALID,25.1241,VALID,329,VALID,0,
2010-05-16, 00:09:04,VALID,998.41,VALID,0,VALID,92.4023,VALID,0,VALID,25.1045,VALID,329,VALID,0,
2010-05-16, 00:10:04,VALID,998.405,VALID,0,VALID,92.4176,VALID,0,VALID,25.1045,VALID,329,VALID,0,
2010-05-16, 00:11:04,VALID,998.387,VALID,0,VALID,92.4481,VALID,0,VALID,25.1241,VALID,329,VALID,0,
2010-05-16, 00:12:04,VALID,998.383,VALID,0,VALID,92.4481,VALID,0,VALID,25.1026,VALID,329,VALID,0,
2010-05-16, 00:13:04,VALID,998.374,VALID,0,VALID,92.471,VALID,0,VALID,25.1045,VALID,329,VALID,0,
2010-05-16, 00:14:04,VALID,998.371,VALID,0,VALID,92.4481,VALID,0,VALID,25.1045,VALID,329,VALID,0,
2010-05-16, 00:15:04,VALID,998.344,VALID,0,VALID,92.5015,VALID,0,VALID,25.1045,VALID,329,VALID,0.0589844,
2010-05-16, 00:16:04,VALID,998.338,VALID,0,VALID,92.5397,VALID,0,VALID,25.1241,VALID,329,VALID,0.382813,
2010-05-16, 00:17:04,VALID,998.3,VALID,0,VALID,92.5473,VALID,0,VALID,25.1455,VALID,329,VALID,0.427734,
2010-05-16, 00:18:04,VALID,998.298,VALID,0,VALID,92.5397,VALID,0,VALID,25.1221,VALID,304,VALID,0.412891,
2010-05-16, 00:19:04,VALID,998.306,VALID,0,VALID,92.5778,VALID,0,VALID,25.1631,VALID,283,VALID,0.492578,
2010-05-16, 00:20:04,VALID,998.296,VALID,0,VALID,92.5854,VALID,0,VALID,25.1826,VALID,261,VALID,0.437109,
2010-05-16, 00:21:04,VALID,998.326,VALID,0,VALID,92.5549,VALID,0,VALID,25.1826,VALID,247,VALID,0.374609,
2010-05-16, 00:22:04,VALID,998.33,VALID,0,VALID,92.5397,VALID,0,VALID,25.1826,VALID,247,VALID,0.332422,
2010-05-16, 00:23:04,VALID,998.331,VALID,0,VALID,92.4863,VALID,0,VALID,25.1631,VALID,247,VALID,0.148828,
2010-05-16, 00:24:04,VALID,998.342,VALID,0,VALID,92.4405,VALID,0,VALID,25.1631,VALID,247,VALID,0,
2010-05-16, 00:25:04,VALID,998.313,VALID,0,VALID,92.4252,VALID,0,VALID,25.1631,VALID,248,VALID,0.115234,
2010-05-16, 00:26:04,VALID,998.319,VALID,0,VALID,92.4328,VALID,0,VALID,25.1631,VALID,248,VALID,0.271094,
2010-05-16, 00:27:04,VALID,998.274,VALID,0,VALID,92.4176,VALID,0,VALID,25.1436,VALID,248,VALID,0.202344,
2010-05-16, 00:28:04,VALID,998.286,VALID,0,VALID,92.4328,VALID,0,VALID,25.1436,VALID,248,VALID,0.426953,
2010-05-16, 00:29:04,VALID,998.271,VALID,0,VALID,92.4328,VALID,0,VALID,25.1436,VALID,248,VALID,0.397266,
2010-05-16, 00:30:04,VALID,998.278,VALID,0,VALID,92.4481,VALID,0,VALID,25.1026,VALID,248,VALID,0.471875,
2010-05-16, 00:31:04,VALID,998.247,VALID,0,VALID,92.4557,VALID,0,VALID,25.1045,VALID,278,VALID,0.522656,
2010-05-16, 00:32:04,VALID,998.21,VALID,0,VALID,92.41,VALID,0.112286,VALID,25.1241,VALID,278,VALID,0.523828,
2010-05-16, 00:33:04,VALID,998.208,VALID,0,VALID,92.4252,VALID,0,VALID,25.085,VALID,300,VALID,0.588672,
2010-05-16, 00:34:04,VALID,998.202,VALID,0,VALID,92.4557,VALID,0,VALID,25.085,VALID,310,VALID,0.683594,
2010-05-16, 00:35:04,VALID,998.224,VALID,0,VALID,92.4939,VALID,0,VALID,25.126,VALID,334,VALID,0.907031,
2010-05-16, 00:36:04,VALID,998.231,VALID,0,VALID,92.5702,VALID,0,VALID,25.1064,VALID,354,VALID,1.14844,
2010-05-16, 00:37:04,VALID,998.246,VALID,0,VALID,92.616,VALID,0,VALID,25.0869,VALID,358,VALID,0.973047,
2010-05-16, 00:38:04,VALID,998.263,VALID,0,VALID,92.677,VALID,0,VALID,25.1064,VALID,358,VALID,0.566016,
2010-05-16, 00:39:04,VALID,998.258,VALID,0,VALID,92.7228,VALID,0,VALID,25.1064,VALID,2,VALID,0.390234,
2010-05-16, 00:40:04,VALID,998.211,VALID,0,VALID,92.7609,VALID,0,VALID,25.126,VALID,2,VALID,0,
2010-05-16, 00:41:04,VALID,998.227,VALID,0,VALID,92.7762,VALID,0,VALID,25.1064,VALID,2,VALID,0,
2010-05-16, 00:42:04,VALID,998.247,VALID,0,VALID,92.8143,VALID,0,VALID,25.1064,VALID,2,VALID,0,
2010-05-16, 00:43:04,VALID,998.224,VALID,0,VALID,92.8143,VALID,0,VALID,25.1064,VALID,2,VALID,0,
2010-05-16, 00:44:04,VALID,998.23,VALID,0,VALID,92.8296,VALID,0,VALID,25.1064,VALID,2,VALID,0,
2010-05-16, 00:45:04,VALID,998.209,VALID,0,VALID,92.8143,VALID,0,VALID,25.1064,VALID,2,VALID,0,
2010-05-16, 00:46:04,VALID,998.197,VALID,0,VALID,92.8601,VALID,0,VALID,25.1064,VALID,2,VALID,0,
2010-05-16, 00:47:04,VALID,998.165,VALID,0,VALID,92.8372,VALID,0,VALID,25.0869,VALID,2,VALID,0,
2010-05-16, 00:48:04,VALID,998.143,VALID,0,VALID,92.8525,VALID,0,VALID,25.1064,VALID,2,VALID,0,
2010-05-16, 00:49:04,VALID,998.121,VALID,0,VALID,92.8372,VALID,0,VALID,25.1064,VALID,2,VALID,0,
2010-05-16, 00:50:04,VALID,998.123,VALID,0,VALID,92.8372,VALID,0,VALID,25.126,VALID,2,VALID,0.500391,
2010-05-16, 00:51:04,VALID,998.064,VALID,0,VALID,92.8296,VALID,0,VALID,25.1455,VALID,2,VALID,0.466016,
2010-05-16, 00:52:04,VALID,998.066,VALID,0,VALID,92.822,VALID,0,VALID,25.1455,VALID,2,VALID,0.514844,
2010-05-16, 00:53:04,VALID,998.085,VALID,0,VALID,92.7838,VALID,0,VALID,25.165,VALID,2,VALID,0.542578,
2010-05-16, 00:54:04,VALID,998.062,VALID,0,VALID,92.7457,VALID,0,VALID,25.1864,VALID,2,VALID,0.625781,
2010-05-16, 00:55:04,VALID,998.051,VALID,0,VALID,92.7304,VALID,0,VALID,25.2236,VALID,2,VALID,0.596094,
2010-05-16, 00:56:04,VALID,998.069,VALID,0,VALID,92.7075,VALID,0,VALID,25.2236,VALID,2,VALID,0.854297,
2010-05-16, 00:57:04,VALID,998.056,VALID,0,VALID,92.6312,VALID,0,VALID,25.2626,VALID,2,VALID,0.755469,
2010-05-16, 00:58:04,VALID,998.054,VALID,0,VALID,92.6083,VALID,0,VALID,25.3017,VALID,2,VALID,0.677734,
2010-05-16, 00:59:04,VALID,998.023,VALID,0,VALID,92.5549,VALID,0,VALID,25.3212,VALID,173,VALID,1.27617,
2010-05-16, 01:00:04,VALID,998.019,VALID,0,VALID,92.5091,VALID,0,VALID,25.3017,VALID,170,VALID,1.00391,
2010-05-16, 01:01:04,VALID,997.963,VALID,0,VALID,92.4557,VALID,0,VALID,25.3212,VALID,170,VALID,0.717969,
2010-05-16, 01:02:04,VALID,997.989,VALID,0,VALID,92.4405,VALID,0,VALID,25.3407,VALID,180,VALID,0.510156,
2010-05-16, 01:03:04,VALID,997.945,VALID,0,VALID,92.3794,VALID,0,VALID,25.2997,VALID,191,VALID,0.355859,
2010-05-16, 01:04:04,VALID,997.956,VALID,0,VALID,92.3413,VALID,0,VALID,25.3407,VALID,204,VALID,0.164063,
2010-05-16, 01:05:04,VALID,997.937,VALID,0,VALID,92.3489,VALID,0,VALID,25.3212,VALID,204,VALID,0.391797,
2010-05-16, 01:06:04,VALID,997.956,VALID,0,VALID,92.3031,VALID,0,VALID,25.3407,VALID,204,VALID,0.223828,
2010-05-16, 01:07:04,VALID,997.927,VALID,0,VALID,92.2574,VALID,0,VALID,25.3017,VALID,204,VALID,0,
2010-05-16, 01:08:04,VALID,997.915,VALID,0,VALID,92.2421,VALID,0,VALID,25.2821,VALID,204,VALID,0,
2010-05-16, 01:09:04,VALID,997.906,VALID,0,VALID,92.2345,VALID,0,VALID,25.2821,VALID,204,VALID,0,
2010-05-16, 01:10:04,VALID,997.867,VALID,0,VALID,92.265,VALID,0,VALID,25.2431,VALID,204,VALID,0,
2010-05-16, 01:11:04,VALID,997.848,VALID,0,VALID,92.2879,VALID,0,VALID,25.2626,VALID,205,VALID,0.443359,
2010-05-16, 01:12:04,VALID,997.836,VALID,0,VALID,92.3184,VALID,0,VALID,25.2626,VALID,200,VALID,1.15234,
2010-05-16, 01:13:04,VALID,997.81,VALID,0,VALID,92.1887,VALID,0,VALID,25.2236,VALID,186,VALID,1.34141,
2010-05-16, 01:14:04,VALID,997.761,VALID,0,VALID,92.0971,VALID,0,VALID,25.2236,VALID,192,VALID,1.96953,
2010-05-16, 01:15:04,VALID,997.726,VALID,0.5,VALID,92.2955,VALID,0,VALID,25.2431,VALID,194,VALID,1.99961,
2010-05-16, 01:16:04,VALID,997.72,VALID,0.5,VALID,92.3413,VALID,0,VALID,25.2236,VALID,194,VALID,1.56484,
2010-05-16, 01:17:04,VALID,997.713,VALID,0.5,VALID,92.3642,VALID,0,VALID,25.1845,VALID,184,VALID,0.888281,
2010-05-16, 01:18:04,VALID,997.659,VALID,0.5,VALID,92.4252,VALID,0,VALID,25.1455,VALID,107,VALID,0.403906,
2010-05-16, 01:19:04,VALID,997.644,VALID,0.5,VALID,92.5244,VALID,0,VALID,25.126,VALID,71,VALID,1.88047,
2010-05-16, 01:20:04,VALID,997.635,VALID,1,VALID,92.3108,VALID,0,VALID,25.1845,VALID,64,VALID,1.93438,
2010-05-16, 01:21:04,VALID,997.676,VALID,0,VALID,92.1582,VALID,0,VALID,25.3407,VALID,75,VALID,3.30312,
2010-05-16, 01:22:04,VALID,997.624,VALID,1,VALID,91.6088,VALID,0,VALID,25.4383,VALID,83,VALID,3.38516,
2010-05-16, 01:23:04,VALID,997.587,VALID,0.5,VALID,91.7691,VALID,0,VALID,25.4578,VALID,105,VALID,1.64844,
2010-05-16, 01:24:04,VALID,997.582,VALID,0,VALID,91.6241,VALID,0,VALID,25.3583,VALID,108,VALID,2.08281,
2010-05-16, 01:25:04,VALID,997.603,VALID,0,VALID,91.5173,VALID,0,VALID,25.3993,VALID,97,VALID,2.33047,
2010-05-16, 01:26:04,VALID,997.65,VALID,0,VALID,91.38,VALID,0,VALID,25.4383,VALID,147,VALID,2.30938,
2010-05-16, 01:27:04,VALID,997.685,VALID,0,VALID,91.708,VALID,0,VALID,25.3602,VALID,172,VALID,3.00859,
2010-05-16, 01:28:04,VALID,997.723,VALID,0,VALID,92.0361,VALID,0,VALID,25.2626,VALID,169,VALID,2.43945,
2010-05-16, 01:29:04,VALID,997.752,VALID,0,VALID,92.2879,VALID,0,VALID,25.1845,VALID,169,VALID,1.90781,
2010-05-16, 01:30:04,VALID,997.783,VALID,0.5,VALID,92.4939,VALID,0,VALID,25.126,VALID,163,VALID,1.68242,
2010-05-16, 01:31:04,VALID,997.787,VALID,0,VALID,92.6923,VALID,0,VALID,25.1064,VALID,162,VALID,1.65664,
2010-05-16, 01:32:04,VALID,997.781,VALID,0,VALID,92.8525,VALID,0,VALID,25.0869,VALID,163,VALID,1.21406,
2010-05-16, 01:33:04,VALID,997.773,VALID,0,VALID,92.9364,VALID,0,VALID,25.0869,VALID,171,VALID,0.922266,
2010-05-16, 01:34:04,VALID,997.753,VALID,0,VALID,93.0127,VALID,0,VALID,25.046,VALID,173,VALID,1.00117,
2010-05-16, 01:35:04,VALID,997.74,VALID,0,VALID,93.0737,VALID,0,VALID,25.0265,VALID,169,VALID,0.921094,
2010-05-16, 01:36:04,VALID,997.74,VALID,0,VALID,93.1348,VALID,0,VALID,25.0069,VALID,171,VALID,0.647656,
2010-05-16, 01:37:04,VALID,997.744,VALID,0,VALID,93.2111,VALID,0,VALID,25.0284,VALID,173,VALID,0.152734,
2010-05-16, 01:38:04,VALID,997.675,VALID,0,VALID,93.2187,VALID,0,VALID,25.0088,VALID,173,VALID,0,
2010-05-16, 01:39:04,VALID,997.677,VALID,0,VALID,93.2492,VALID,0,VALID,24.9679,VALID,173,VALID,0,
2010-05-16, 01:40:04,VALID,997.659,VALID,0,VALID,93.3103,VALID,0,VALID,24.9484,VALID,173,VALID,0.0128906,
2010-05-16, 01:41:04,VALID,997.637,VALID,0,VALID,93.3255,VALID,0,VALID,24.9698,VALID,173,VALID,0.327344,
2010-05-16, 01:42:04,VALID,997.579,VALID,0,VALID,93.3637,VALID,0,VALID,24.9503,VALID,173,VALID,0.254297,
2010-05-16, 01:43:04,VALID,997.566,VALID,0,VALID,93.3866,VALID,0,VALID,24.9503,VALID,173,VALID,0.046875,
2010-05-16, 01:44:04,VALID,997.513,VALID,0,VALID,93.4094,VALID,0,VALID,24.9503,VALID,173,VALID,0,
2010-05-16, 01:45:04,VALID,997.526,VALID,0,VALID,93.4323,VALID,0,VALID,24.9503,VALID,173,VALID,0.315234,
2010-05-16, 01:46:04,VALID,997.53,VALID,0,VALID,93.4476,VALID,0,VALID,24.9308,VALID,173,VALID,0,
2010-05-16, 01:47:04,VALID,997.549,VALID,0,VALID,93.4857,VALID,0,VALID,24.9308,VALID,173,VALID,0,
2010-05-16, 01:48:04,VALID,997.534,VALID,0,VALID,93.4857,VALID,0,VALID,24.9074,VALID,173,VALID,0,
2010-05-16, 01:49:04,VALID,997.483,VALID,0,VALID,93.4857,VALID,0,VALID,24.9289,VALID,173,VALID,0,
2010-05-16, 01:50:04,VALID,997.457,VALID,0,VALID,93.501,VALID,0,VALID,24.9289,VALID,173,VALID,0,
2010-05-16, 01:51:04,VALID,997.444,VALID,0,VALID,93.5239,VALID,0,VALID,24.9289,VALID,173,VALID,0,
2010-05-16, 01:52:04,VALID,997.439,VALID,0,VALID,93.5391,VALID,0,VALID,24.9289,VALID,173,VALID,0,
2010-05-16, 01:53:04,VALID,997.452,VALID,0,VALID,93.5468,VALID,0,VALID,24.9093,VALID,173,VALID,0,
2010-05-16, 01:54:04,VALID,997.451,VALID,0,VALID,93.5468,VALID,0,VALID,24.9308,VALID,173,VALID,0,
2010-05-16, 01:55:04,VALID,997.432,VALID,0,VALID,93.5468,VALID,0,VALID,24.8898,VALID,173,VALID,0,
2010-05-16, 01:56:04,VALID,997.446,VALID,0,VALID,93.5697,VALID,0.112286,VALID,24.8898,VALID,173,VALID,0,
2010-05-16, 01:57:04,VALID,997.434,VALID,0,VALID,93.5926,VALID,0,VALID,24.8898,VALID,173,VALID,0,
2010-05-16, 01:58:04,VALID,997.455,VALID,0,VALID,93.6002,VALID,0.112286,VALID,24.8898,VALID,173,VALID,0,
2010-05-16, 01:59:04,VALID,997.435,VALID,0,VALID,93.6078,VALID,0,VALID,24.8898,VALID,173,VALID,0,
2010-05-16, 02:00:04,VALID,997.462,VALID,0,VALID,93.6154,VALID,0,VALID,24.8898,VALID,173,VALID,0,
2010-05-16, 02:01:04,VALID,997.446,VALID,0,VALID,93.6307,VALID,0,VALID,24.8703,VALID,173,VALID,0,
2010-05-16, 02:02:04,VALID,997.458,VALID,0,VALID,93.6154,VALID,0.112286,VALID,24.8508,VALID,173,VALID,0.135156,
2010-05-16, 02:03:04,VALID,997.47,VALID,0,VALID,93.646,VALID,0,VALID,24.8332,VALID,173,VALID,0.189453,
2010-05-16, 02:04:04,VALID,997.481,VALID,0,VALID,93.6307,VALID,0,VALID,24.8332,VALID,173,VALID,0.138281,
2010-05-16, 02:05:04,VALID,997.452,VALID,0,VALID,93.6612,VALID,0,VALID,24.8136,VALID,173,VALID,0.00117188,
2010-05-16, 02:06:04,VALID,997.436,VALID,0,VALID,93.646,VALID,0,VALID,24.7922,VALID,173,VALID,0.34375,
2010-05-16, 02:07:04,VALID,997.47,VALID,0,VALID,93.6841,VALID,0,VALID,24.835,VALID,173,VALID,0.403125,
2010-05-16, 02:08:04,VALID,997.468,VALID,0,VALID,93.6994,VALID,0,VALID,24.8136,VALID,173,VALID,0.286328,
2010-05-16, 02:09:04,VALID,997.473,VALID,0,VALID,93.6612,VALID,0,VALID,24.8136,VALID,173,VALID,0.0132813,
2010-05-16, 02:10:04,VALID,997.487,VALID,0,VALID,93.6994,VALID,0,VALID,24.8136,VALID,173,VALID,0,
2010-05-16, 02:11:04,VALID,997.484,VALID,0,VALID,93.7146,VALID,0,VALID,24.8332,VALID,173,VALID,0,
2010-05-16, 02:12:04,VALID,997.526,VALID,0,VALID,93.707,VALID,0,VALID,24.8136,VALID,173,VALID,0,
2010-05-16, 02:13:04,VALID,997.501,VALID,0,VALID,93.7299,VALID,0,VALID,24.8136,VALID,173,VALID,0,
2010-05-16, 02:14:04,VALID,997.55,VALID,0,VALID,93.7375,VALID,0,VALID,24.8136,VALID,173,VALID,0,
2010-05-16, 02:15:04,VALID,997.549,VALID,0,VALID,93.7451,VALID,0,VALID,24.8136,VALID,173,VALID,0,
2010-05-16, 02:16:04,VALID,997.562,VALID,0,VALID,93.7375,VALID,0,VALID,24.8136,VALID,173,VALID,0,
2010-05-16, 02:17:04,VALID,997.559,VALID,0,VALID,93.7451,VALID,0,VALID,24.8136,VALID,173,VALID,0.0175781,
2010-05-16, 02:18:04,VALID,997.535,VALID,0,VALID,93.7604,VALID,0,VALID,24.8527,VALID,241,VALID,0.645703,
2010-05-16, 02:19:04,VALID,997.537,VALID,0,VALID,93.7833,VALID,0,VALID,24.8527,VALID,252,VALID,0.262891,
2010-05-16, 02:20:04,VALID,997.536,VALID,0,VALID,93.7909,VALID,0,VALID,24.8527,VALID,237,VALID,1.00781,
2010-05-16, 02:21:04,VALID,997.529,VALID,0,VALID,93.7757,VALID,0,VALID,24.8722,VALID,234,VALID,1.20586,
2010-05-16, 02:22:04,VALID,997.54,VALID,0,VALID,93.7757,VALID,0,VALID,24.8722,VALID,225,VALID,1.09609,
2010-05-16, 02:23:04,VALID,997.555,VALID,0,VALID,93.768,VALID,0,VALID,24.8722,VALID,231,VALID,0.964063,
2010-05-16, 02:24:04,VALID,997.546,VALID,0,VALID,93.7757,VALID,0,VALID,24.8313,VALID,223,VALID,0.702734,
2010-05-16, 02:25:04,VALID,997.546,VALID,0,VALID,93.7833,VALID,0,VALID,24.8527,VALID,216,VALID,0.762109,
2010-05-16, 02:26:04,VALID,997.549,VALID,0,VALID,93.7757,VALID,0,VALID,24.8313,VALID,202,VALID,0.881641,
2010-05-16, 02:27:04,VALID,997.555,VALID,0,VALID,93.7985,VALID,0,VALID,24.8332,VALID,207,VALID,0.844531,
2010-05-16, 02:28:04,VALID,997.553,VALID,0,VALID,93.7985,VALID,0,VALID,24.8136,VALID,202,VALID,0.782422,
2010-05-16, 02:29:04,VALID,997.534,VALID,0,VALID,93.7909,VALID,0,VALID,24.8136,VALID,199,VALID,1.0332,
2010-05-16, 02:30:04,VALID,997.526,VALID,0,VALID,93.7909,VALID,0,VALID,24.8332,VALID,187,VALID,0.903125,
2010-05-16, 02:31:04,VALID,997.519,VALID,0,VALID,93.7909,VALID,0,VALID,24.8136,VALID,190,VALID,1.02266,
2010-05-16, 02:32:04,VALID,997.501,VALID,0,VALID,93.7985,VALID,0,VALID,24.8332,VALID,189,VALID,0.699609,
2010-05-16, 02:33:04,VALID,997.502,VALID,0,VALID,93.7833,VALID,0,VALID,24.8136,VALID,191,VALID,0.758203,
2010-05-16, 02:34:04,VALID,997.523,VALID,0,VALID,93.7833,VALID,0,VALID,24.7941,VALID,191,VALID,0.395312,
2010-05-16, 02:35:04,VALID,997.482,VALID,0,VALID,93.7909,VALID,0,VALID,24.7941,VALID,185,VALID,0.626172,
2010-05-16, 02:36:04,VALID,997.506,VALID,0,VALID,93.7833,VALID,0,VALID,24.7746,VALID,185,VALID,0.571094,
2010-05-16, 02:37:04,VALID,997.512,VALID,0,VALID,93.8062,VALID,0,VALID,24.7532,VALID,185,VALID,0.140625,
2010-05-16, 02:38:04,VALID,997.524,VALID,0,VALID,93.8062,VALID,0,VALID,24.7551,VALID,185,VALID,0,
2010-05-16, 02:39:04,VALID,997.503,VALID,0,VALID,93.7757,VALID,0,VALID,24.7356,VALID,185,VALID,0,
2010-05-16, 02:40:04,VALID,997.51,VALID,0,VALID,93.7375,VALID,0,VALID,24.677,VALID,185,VALID,0,
2010-05-16, 02:41:04,VALID,997.484,VALID,0,VALID,93.7528,VALID,0,VALID,24.5989,VALID,185,VALID,0,
2010-05-16, 02:42:04,VALID,997.522,VALID,0,VALID,93.7833,VALID,0,VALID,24.5599,VALID,185,VALID,0.182812,
2010-05-16, 02:43:04,VALID,997.527,VALID,0,VALID,93.7985,VALID,0,VALID,24.5599,VALID,185,VALID,0.400391,
2010-05-16, 02:44:04,VALID,997.512,VALID,0,VALID,93.8291,VALID,0,VALID,24.5599,VALID,173,VALID,0.601563,
2010-05-16, 02:45:04,VALID,997.515,VALID,0,VALID,93.8214,VALID,0,VALID,24.5794,VALID,142,VALID,0.791797,
2010-05-16, 02:46:04,VALID,997.516,VALID,0,VALID,93.852,VALID,0,VALID,24.5599,VALID,137,VALID,0.792969,
2010-05-16, 02:47:04,VALID,997.527,VALID,0,VALID,93.852,VALID,0,VALID,24.5599,VALID,128,VALID,0.840234,
2010-05-16, 02:48:04,VALID,997.54,VALID,0,VALID,93.852,VALID,0,VALID,24.5385,VALID,127,VALID,0.667578,
2010-05-16, 02:49:04,VALID,997.549,VALID,0,VALID,93.8443,VALID,0,VALID,24.5404,VALID,127,VALID,0.525781,
2010-05-16, 02:50:04,VALID,997.582,VALID,0,VALID,93.8367,VALID,0,VALID,24.519,VALID,127,VALID,0.499219,
2010-05-16, 02:51:04,VALID,997.557,VALID,0,VALID,93.8672,VALID,0,VALID,24.5404,VALID,124,VALID,0.596875,
2010-05-16, 02:52:04,VALID,997.558,VALID,0,VALID,93.8825,VALID,0,VALID,24.5404,VALID,124,VALID,0.533594,
2010-05-16, 02:53:04,VALID,997.542,VALID,0,VALID,93.8825,VALID,0,VALID,24.558,VALID,124,VALID,0.503516,
2010-05-16, 02:54:04,VALID,997.559,VALID,0,VALID,93.9054,VALID,0,VALID,24.558,VALID,113,VALID,0.676172,
2010-05-16, 02:55:04,VALID,997.519,VALID,0,VALID,93.913,VALID,0,VALID,24.5989,VALID,113,VALID,0.600391,
2010-05-16, 02:56:04,VALID,997.547,VALID,0,VALID,93.913,VALID,0,VALID,24.638,VALID,113,VALID,0.618359,
2010-05-16, 02:57:04,VALID,997.554,VALID,0,VALID,93.9283,VALID,0,VALID,24.6361,VALID,113,VALID,0.549609,
2010-05-16, 02:58:04,VALID,997.549,VALID,0,VALID,93.9054,VALID,0,VALID,24.677,VALID,108,VALID,0.266797,
2010-05-16, 02:59:04,VALID,997.583,VALID,0,VALID,93.913,VALID,0,VALID,24.6556,VALID,108,VALID,0.223438,
2010-05-16, 03:00:04,VALID,997.579,VALID,0,VALID,93.9206,VALID,0,VALID,24.677,VALID,108,VALID,0.147656,
2010-05-16, 03:01:04,VALID,997.596,VALID,0,VALID,93.913,VALID,0,VALID,24.6751,VALID,108,VALID,0.0339844,
2010-05-16, 03:02:04,VALID,997.625,VALID,0,VALID,93.9206,VALID,0,VALID,24.6965,VALID,113,VALID,0.460547,
2010-05-16, 03:03:04,VALID,997.599,VALID,0,VALID,93.9283,VALID,0,VALID,24.7142,VALID,128,VALID,0.59375,
2010-05-16, 03:04:04,VALID,997.649,VALID,0,VALID,93.9359,VALID,0,VALID,24.7532,VALID,135,VALID,0.577344,
2010-05-16, 03:05:04,VALID,997.65,VALID,0,VALID,93.9283,VALID,0,VALID,24.8136,VALID,142,VALID,0.702344,
2010-05-16, 03:06:04,VALID,997.646,VALID,0,VALID,93.9435,VALID,0,VALID,24.8332,VALID,154,VALID,0.699609,
2010-05-16, 03:07:04,VALID,997.656,VALID,0,VALID,93.9283,VALID,0,VALID,24.8722,VALID,152,VALID,0.455859,
2010-05-16, 03:08:04,VALID,997.681,VALID,0,VALID,93.9283,VALID,0,VALID,24.8508,VALID,152,VALID,0.308594,
2010-05-16, 03:09:04,VALID,997.674,VALID,0,VALID,93.9054,VALID,0,VALID,24.8722,VALID,152,VALID,0.0992187,
2010-05-16, 03:10:04,VALID,997.684,VALID,0,VALID,93.9206,VALID,0,VALID,24.8313,VALID,146,VALID,0.0105469,
2010-05-16, 03:11:04,VALID,997.668,VALID,0,VALID,93.9054,VALID,0,VALID,24.8313,VALID,146,VALID,0.0183594,
2010-05-16, 03:12:04,VALID,997.653,VALID,0,VALID,93.8977,VALID,0,VALID,24.8136,VALID,146,VALID,0,
2010-05-16, 03:13:04,VALID,997.656,VALID,0,VALID,93.8977,VALID,0,VALID,24.7922,VALID,251,VALID,0.422656,
2010-05-16, 03:14:04,VALID,997.615,VALID,0,VALID,93.8977,VALID,0,VALID,24.7941,VALID,283,VALID,0.745313,
2010-05-16, 03:15:04,VALID,997.585,VALID,0,VALID,93.9283,VALID,0,VALID,24.7532,VALID,283,VALID,0.709766,
2010-05-16, 03:16:04,VALID,997.61,VALID,0,VALID,93.9283,VALID,0,VALID,24.7337,VALID,283,VALID,0.550391,
2010-05-16, 03:17:04,VALID,997.582,VALID,0,VALID,93.9359,VALID,0,VALID,24.7337,VALID,283,VALID,0.437109,
2010-05-16, 03:18:04,VALID,997.594,VALID,0,VALID,93.9283,VALID,0,VALID,24.7142,VALID,275,VALID,0.689062,
2010-05-16, 03:19:04,VALID,997.568,VALID,0,VALID,93.9283,VALID,0,VALID,24.7551,VALID,251,VALID,0.617969,
2010-05-16, 03:20:04,VALID,997.578,VALID,0,VALID,93.9283,VALID,0,VALID,24.7356,VALID,251,VALID,0.473047,
2010-05-16, 03:21:04,VALID,997.591,VALID,0,VALID,93.9054,VALID,0,VALID,24.716,VALID,209,VALID,0.661328,
2010-05-16, 03:22:04,VALID,997.62,VALID,0,VALID,93.9283,VALID,0,VALID,24.716,VALID,202,VALID,0.606641,
2010-05-16, 03:23:04,VALID,997.621,VALID,0,VALID,93.913,VALID,0,VALID,24.716,VALID,202,VALID,0,
2010-05-16, 03:24:04,VALID,997.594,VALID,0,VALID,93.9435,VALID,0,VALID,24.6965,VALID,205,VALID,0,
2010-05-16, 03:25:04,VALID,997.594,VALID,0,VALID,93.9511,VALID,0,VALID,24.6965,VALID,205,VALID,0,
2010-05-16, 03:26:04,VALID,997.593,VALID,0,VALID,93.9283,VALID,0,VALID,24.6751,VALID,213,VALID,0.601172,
2010-05-16, 03:27:04,VALID,997.608,VALID,0,VALID,93.9054,VALID,0,VALID,24.677,VALID,213,VALID,0,
2010-05-16, 03:28:04,VALID,997.645,VALID,0,VALID,93.9359,VALID,0,VALID,24.677,VALID,213,VALID,0,
2010-05-16, 03:29:04,VALID,997.635,VALID,0,VALID,93.9511,VALID,0,VALID,24.6965,VALID,213,VALID,0,
2010-05-16, 03:30:04,VALID,997.667,VALID,0,VALID,93.9206,VALID,0,VALID,24.677,VALID,213,VALID,0,
2010-05-16, 03:31:04,VALID,997.639,VALID,0,VALID,93.9435,VALID,0,VALID,24.677,VALID,213,VALID,0,
2010-05-16, 03:32:04,VALID,997.637,VALID,0,VALID,93.9283,VALID,0,VALID,24.677,VALID,206,VALID,0,
2010-05-16, 03:33:04,VALID,997.615,VALID,0,VALID,93.9283,VALID,0,VALID,24.6361,VALID,206,VALID,0,
2010-05-16, 03:34:04,VALID,997.599,VALID,0,VALID,93.9435,VALID,0,VALID,24.6575,VALID,206,VALID,0,
2010-05-16, 03:35:04,VALID,997.607,VALID,0,VALID,93.913,VALID,0,VALID,24.677,VALID,206,VALID,0,
2010-05-16, 03:36:04,VALID,997.638,VALID,0,VALID,93.9511,VALID,0,VALID,24.6965,VALID,206,VALID,0,
2010-05-16, 03:37:04,VALID,997.621,VALID,0,VALID,93.9359,VALID,0,VALID,24.6751,VALID,206,VALID,0,
2010-05-16, 03:38:04,VALID,997.589,VALID,0,VALID,93.9359,VALID,0,VALID,24.6361,VALID,206,VALID,0,
2010-05-16, 03:39:04,VALID,997.612,VALID,0,VALID,93.9206,VALID,0,VALID,24.6184,VALID,207,VALID,0,
2010-05-16, 03:40:04,VALID,997.587,VALID,0,VALID,93.9359,VALID,0,VALID,24.5989,VALID,206,VALID,0,
2010-05-16, 03:41:04,VALID,997.59,VALID,0,VALID,93.9511,VALID,0,VALID,24.5385,VALID,206,VALID,0,
2010-05-16, 03:42:04,VALID,997.573,VALID,0,VALID,93.9359,VALID,0,VALID,24.5385,VALID,207,VALID,0,
2010-05-16, 03:43:04,VALID,997.581,VALID,0,VALID,93.9588,VALID,0,VALID,24.5599,VALID,206,VALID,0,
2010-05-16, 03:44:04,VALID,997.604,VALID,0,VALID,93.9588,VALID,0,VALID,24.5599,VALID,207,VALID,0,
2010-05-16, 03:45:04,VALID,997.614,VALID,0,VALID,93.9664,VALID,0,VALID,24.5599,VALID,207,VALID,0,
2010-05-16, 03:46:04,VALID,997.645,VALID,0,VALID,93.9511,VALID,0,VALID,24.5209,VALID,207,VALID,0,
2010-05-16, 03:47:04,VALID,997.644,VALID,0,VALID,93.9435,VALID,0,VALID,24.5209,VALID,220,VALID,0,
2010-05-16, 03:48:04,VALID,997.62,VALID,0,VALID,93.9817,VALID,0,VALID,24.5013,VALID,251,VALID,0.595312,
2010-05-16, 03:49:04,VALID,997.642,VALID,0,VALID,93.974,VALID,0,VALID,24.5013,VALID,251,VALID,0.574609,